Vertical_Velocity
-1 -2 -4 12 14 10 -4 -15 -1 2 1 8 -2 -1 3 5 5 8 5 10 9 -0 -2 2 -4 -2 1 1 1 1 -2 -1 3 4 8 -7 -3 -3 -4 -2 -3 -1 -3 -2 -2 -2 -0 -1 -2
-2 -0 12 -0 12 6 -12 -8 2 8 8 -4 -5 -2 3 9 -2 0 4 0 2 -3 -6 4 -4 -3 -1 -2 -1 -0 0 -2 1 -2 -8 10 -2 -0 -0 -3 0 0 -1 2 0 1 1 1 -1
-3 -7 13 4 2 -1 -6 -2 2 4 -2 1 0 0 0 8 -2 -4 5 0 -2 -2 -5 3 -0 -2 -2 -1 -0 -0 -0 1 -0 5 -2 1 -1 0 -1 -2 0 0 -1 0 0 -0 -1 -0 -3
3 14 5 10 -3 -18 1 1 1 -1 0 -4 4 -0 -3 4 -1 -3 -1 5 1 -1 -4 -1 -1 0 0 0 -1 -0 -1 -2 3 -2 1 2 3 1 -0 -3 -2 0 -1 -1 -3 -2 -2 -1 -2
11 -2 4 5 -9 -7 -2 1 3 -1 -0 0 -3 10 1 -1 -0 -1 -1 -2 -2 -4 -2 -0 -1 -0 2 3 4 1 -3 -3 -6 -5 2 3 6 -2 3 -1 -2 1 -2 2 -1 -1 -1 -1 -1
3 11 7 -0 -6 -2 -0 -0 -1 0 -3 6 -0 -3 8 -2 2 3 1 -2 -2 -2 -1 -4 -3 -3 -2 -2 -1 0 3 3 -5 -1 -1 0 2 -2 0 -3 1 -1 0 3 -0 1 1 2 -1
9 7 -3 -1 -5 -6 1 0 0 -0 -0 3 -7 -2 4 6 -3 3 1 2 -0 1 1 -0 -1 -1 0 -1 -1 -3 0 1 6 -10 -1 -1 6 1 0 -1 2 0 -0 1 2 -1 -1 1 1
12 11 1 -4 -3 -8 4 -1 -2 -1 7 -8 3 0 3 6 -4 3 3 2 0 -1 2 3 -1 -1 -3 -2 -2 -1 -1 5 -0 -7 1 -5 0 -2 -3 -1 -2 -4 -0 0 -2 -1 -0 -1 -0
9 10 -1 -10 4 -2 3 0 9 -7 5 2 9 -1 -4 -3 -2 -1 1 1 1 -1 0 -1 0 2 3 -1 -2 -9 -7 1 2 -2 -3 -4 1 2 -2 -1 1 -1 1 0 -3 -1 0 -3 -3
11 7 -6 -3 3 1 2 -2 1 1 1 2 -2 3 2 1 -0 -0 -2 -3 -1 0 -1 -1 1 1 -1 1 -2 -2 -2 0 -3 -6 -2 4 1 -1 -1 -2 -2 1 1 -0 0 -1 -1 -1 0
-7 -1 -4 -11 3 1 1 -1 2 2 -2 8 -7 -3 2 0 2 -1 1 -1 -3 -0 1 -1 1 -3 -3 -4 -1 1 -0 -2 -1 2 2 1 -1 1 -2 -1 -2 -1 -0 -2 -0 -3 -2 -2 -2
15 -2 3 -9 -1 1 -0 1 -4 3 5 -4 17 -7 -1 1 -0 -0 6 2 -2 -2 1 0 -1 1 5 -0 2 -2 -1 -1 -3 -0 0 -1 -3 -3 -0 -2 -2 -2 -1 -2 -3 -3 -2 -2 -0
5 -4 1 -3 4 -1 1 -3 -2 -5 18 1 7 4 -1 2 -0 4 11 1 -3 2 2 2 1 -1 -1 1 -0 0 3 0 -0 0 0 0 0 1 -2 -3 -2 -1 -2 -2 -2 -3 -2 -4 -2
-2 2 -4 -5 -5 0 9 -7 22 -16 15 -4 1 1 -0 -0 -2 15 -2 -5 -6 -3 2 1 2 -1 -1 -3 1 3 2 1 -0 2 3 2 1 -0 1 2 1 0 -0 -1 -2 -3 -2 -3 -5
-1 4 -2 -4 -7 -7 5 3 -3 -15 1 1 -1 0 5 -4 3 11 -0 -0 3 -2 -3 -0 -1 -2 -2 -0 -0 -2 -0 -0 -1 -0 -1 -0 -2 0 -1 -1 -1 -0 -2 -3 0 0 0 -0 -0
9 13 7 -18 2 -10 -1 -12 -12 8 -5 -1 3 -4 5 2 10 6 1 -4 -0 -1 -1 2 2 2 2 1 1 1 2 1 -0 -2 -2 -3 -3 -3 -1 1 1 -1 1 1 0 -3 -3 -5 -5
-1 -2 3 -8 -1 2 -0 -5 -1 -6 0 1 1 1 -1 2 8 1 -2 -3 -3 -1 1 4 2 2 1 1 0 1 1 1 0 1 2 3 2 1 1 -0 -1 -2 0 -1 -1 -2 -3 -4 -2
-1 -1 -5 3 2 4 0 -5 -4 1 2 -3 0 -4 -2 4 2 0 -4 -1 10 7 -1 0 1 0 -1 -1 -1 -0 0 0 -1 -0 -1 -0 2 1 -2 -2 -1 -1 -2 -3 -3 -3 -0 -2 -2
5 4 2 -8 -10 17 -0 -1 -4 -5 3 3 1 5 -3 -0 -6 5 4 10 9 -2 1 3 1 0 -0 -0 -1 -0 0 -1 0 1 1 -1 -2 -1 -1 -1 -2 -3 -5 -3 -4 -3 -4 -5 -2
1 3 -9 -11 -4 21 -2 -10 -4 -0 -5 3 -5 0 2 6 5 -4 3 0 2 -3 2 -0 1 2 6 5 18 5 1 -0 -0 -0 -0 0 -0 -3 -0 -2 -2 -1 -2 -3 -2 -1 -1 -1 -3
-3 4 -2 8 -5 -4 8 -10 -4 -9 3 -3 8 0 10 -5 3 -3 1 -8 -3 -7 -2 -1 -0 1 11 -1 -2 -1 2 2 1 -0 -0 -1 -1 1 -1 -2 -5 -4 -2 -4 -1 -2 -4 -1 -2
5 -2 3 1 8 -0 12 -15 -5 -3 -2 1 2 2 -0 15 11 -3 -1 -1 -3 2 -4 12 3 -4 -5 -2 -3 -2 -3 2 0 -3 -2 -2 0 -6 2 -1 -3 -1 -3 -0 -2 1 -1 -1 -2
-12 4 3 2 2 13 -10 16 -26 3 -2 -1 2 1 2 5 -5 -3 -0 -4 -6 -1 -4 1 0 4 4 4 1 2 -0 0 -1 -1 -2 -2 -1 -2 -4 -1 -1 0 1 -2 -2 -0 0 -1 1
-2 5 1 2 6 11 -11 18 -20 -2 3 2 5 1 -1 6 2 1 -3 -4 -2 2 -2 -3 3 -0 0 2 2 -1 -1 -1 -2 -1 -2 1 -1 -5 -2 -1 -2 -2 -3 -4 -1 0 -1 -4 -0
10 10 -3 2 10 -11 -3 15 -20 1 1 -5 -1 2 0 1 9 4 -2 1 4 -1 -2 -5 -1 1 2 2 0 -1 -1 -1 1 -1 -3 -2 -2 0 -2 -6 -5 -4 -0 2 -1 -4 -3 -2 -3
-4 8 -1 -0 3 -8 -2 -2 1 2 1 -2 2 2 -1 1 -2 5 -1 -2 9 -3 -4 -3 5 -1 1 2 -0 0 -0 -1 -0 -1 -1 1 -4 -3 -2 -1 -2 -1 1 -3 -3 -1 -1 1 -1
-21 7 -4 12 -1 13 -5 -22 -16 4 5 3 1 -0 4 -1 0 -2 6 -6 4 -5 -5 -1 -0 -0 1 0 1 2 -0 -2 -3 -1 2 -5 -1 -0 -1 -2 -2 -2 -1 -3 1 1 -1 -2 -1
16 -7 1 -4 5 -2 -8 -4 -4 1 4 1 -0 1 5 1 3 -0 5 -2 3 -5 -2 -1 4 -1 1 1 -2 1 -3 0 -0 1 -1 -0 1 -2 -2 -2 -2 -2 -3 1 -1 -2 -3 -1 -2
2 4 4 13 9 4 -1 -11 -2 -4 -1 -2 -1 2 -3 5 -5 -1 3 3 3 -2 -1 -5 4 -3 -1 -2 -1 1 -0 -4 -0 -1 -2 -2 -2 -2 -3 -1 -2 -1 -2 0 1 -1 -1 -3 -3
8 -2 5 15 -11 -2 8 -20 1 -2 -1 -0 -2 3 -8 -3 -6 -7 -2 -0 2 -0 2 -2 1 1 0 0 0 0 -0 1 1 -2 -2 -4 -2 1 -2 -1 -2 1 -0 0 -0 -2 -4 -2 -1
Height
1491 1491 1492 1492 1493 1477 1469 1452 1431 1430 1433 1442 1447 1455 1465 1472 1474 1485 1488 1488 1489 1490 1495 1498 1502 1505 1508 1510 1512 1514 1516 1519 1521 1521 1523 1523 1526 1527 1529 1531 1532 1533 1533 1533 1533 1533 1534 1534 1534
1490 1490 1494 1489 1487 1479 1458 1434 1437 1441 1448 1452 1454 1458 1460 1478 1480 1484 1488 1488 1489 1491 1497 1498 1502 1505 1508 1510 1513 1515 1516 1518 1521 1522 1524 1523 1525 1526 1528 1530 1531 1532 1533 1533 1533 1533 1533 1533 1533
1490 1491 1492 1482 1475 1475 1462 1435 1436 1445 1452 1453 1456 1461 1467 1480 1483 1485 1487 1488 1490 1493 1497 1499 1502 1506 1508 1511 1512 1515 1517 1519 1521 1523 1525 1525 1525 1526 1528 1530 1531 1531 1532 1532 1532 1532 1532 1531 1531
1490 1490 1489 1480 1474 1453 1443 1436 1439 1446 1451 1455 1456 1466 1475 1482 1482 1485 1486 1489 1491 1493 1497 1501 1504 1507 1509 1511 1513 1515 1518 1520 1522 1524 1525 1526 1526 1526 1528 1529 1530 1531 1531 1531 1530 1531 1530 1530 1529
1489 1488 1481 1474 1461 1446 1435 1438 1442 1448 1448 1452 1455 1468 1477 1481 1480 1483 1485 1487 1489 1493 1498 1500 1503 1505 1508 1510 1513 1514 1517 1519 1522 1524 1526 1527 1526 1526 1527 1528 1529 1529 1529 1529 1528 1529 1528 1528 1527
1486 1481 1483 1472 1450 1434 1438 1442 1448 1452 1451 1451 1456 1464 1480 1479 1480 1482 1484 1486 1490 1493 1496 1499 1500 1503 1505 1509 1512 1514 1517 1519 1521 1524 1526 1528 1526 1526 1527 1527 1527 1527 1528 1527 1526 1526 1526 1525 1525
1483 1478 1474 1464 1454 1441 1436 1444 1451 1452 1450 1448 1453 1460 1477 1481 1480 1483 1484 1486 1490 1493 1496 1497 1499 1502 1505 1509 1512 1515 1516 1518 1519 1522 1525 1526 1526 1525 1525 1526 1526 1526 1527 1525 1525 1524 1524 1522 1522
1478 1474 1473 1463 1455 1445 1442 1447 1452 1456 1454 1455 1454 1459 1472 1477 1478 1482 1484 1486 1490 1494 1496 1498 1499 1502 1505 1509 1511 1513 1515 1517 1513 1522 1524 1525 1525 1524 1525 1526 1525 1525 1525 1524 1522 1522 1521 1520 1519
1475 1477 1474 1459 1449 1437 1445 1449 1450 1456 1456 1458 1460 1462 1466 1471 1475 1480 1484 1488 1490 1492 1495 1497 1499 1501 1503 1506 1510 1513 1514 1516 1517 1521 1522 1524 1524 1523 1523 1524 1523 1522 1522 1521 1520 1519 1518 1517 1516
1469 1471 1463 1447 1449 1448 1445 1452 1453 1456 1455 1459 1466 1469 1469 1471 1475 1478 1482 1486 1489 1492 1494 1497 1499 1501 1503 1505 1508 1510 1512 1514 1515 1518 1520 1521 1521 1522 1521 1521 1520 1520 1519 1518 1517 1516 1515 1514 1513
1462 1464 1457 1451 1452 1453 1452 1452 1452 1454 1454 1453 1458 1469 1472 1473 1478 1481 1484 1485 1487 1491 1493 1496 1498 1501 1504 1506 1508 1511 1512 1512 1515 1517 1518 1519 1518 1519 1518 1517 1518 1518 1517 1516 1515 1514 1513 1512 1510
1460 1456 1457 1454 1452 1455 1456 1454 1451 1452 1454 1457 1460 1465 1471 1473 1477 1481 1484 1487 1486 1489 1492 1495 1498 1501 1505 1507 1509 1510 1510 1512 1512 1514 1515 1516 1515 1515 1515 1515 1516 1515 1514 1513 1512 1511 1511 1509 1508
1460 1458 1456 1454 1452 1454 1456 1456 1454 1453 1454 1456 1460 1465 1471 1474 1477 1481 1483 1485 1488 1489 1491 1494 1496 1499 1502 1505 1506 1506 1508 1509 1510 1511 1512 1512 1512 1512 1513 1514 1514 1513 1512 1512 1510 1510 1508 1507 1507
1461 1457 1456 1454 1452 1451 1451 1452 1453 1452 1452 1454 1457 1463 1467 1472 1474 1479 1480 1483 1487 1489 1492 1494 1495 1497 1501 1503 1505 1505 1506 1507 1507 1508 1509 1509 1510 1511 1512 1512 1511 1511 1510 1510 1509 1508 1507 1505 1505
1460 1459 1455 1450 1445 1442 1445 1447 1448 1446 1450 1453 1456 1459 1463 1468 1471 1475 1478 1482 1485 1488 1490 1492 1494 1496 1498 1501 1503 1504 1505 1505 1505 1507 1508 1508 1509 1510 1510 1510 1510 1509 1508 1508 1507 1505 1505 1504 1503
1458 1455 1454 1440 1434 1431 1440 1450 1440 1433 1446 1450 1453 1459 1461 1465 1470 1472 1476 1481 1484 1486 1488 1490 1491 1494 1496 1498 1500 1501 1503 1503 1504 1504 1506 1507 1508 1509 1509 1509 1509 1508 1507 1506 1504 1503 1502 1502 1501
1450 1450 1443 1433 1428 1436 1442 1446 1437 1441 1443 1445 1450 1455 1460 1464 1467 1471 1475 1480 1484 1486 1488 1489 1491 1492 1495 1497 1498 1500 1502 1503 1503 1504 1505 1505 1506 1507 1507 1507 1508 1507 1506 1504 1503 1502 1501 1499 1499
1452 1446 1443 1444 1435 1436 1436 1436 1432 1436 1438 1440 1443 1451 1458 1462 1467 1471 1475 1480 1484 1485 1487 1488 1489 1491 1493 1495 1497 1499 1501 1501 1501 1502 1503 1505 1506 1506 1505 1506 1506 1505 1504 1503 1502 1501 1500 1499 1497
1449 1452 1451 1444 1439 1436 1433 1430 1428 1431 1432 1434 1437 1441 1449 1459 1466 1472 1478 1481 1483 1485 1487 1488 1488 1490 1493 1495 1497 1498 1499 1499 1500 1501 1502 1503 1504 1505 1505 1504 1504 1504 1503 1503 1502 1501 1499 1498 1496
1449 1456 1456 1445 1438 1439 1436 1429 1426 1427 1427 1424 1428 1433 1438 1448 1459 1468 1477 1480 1483 1486 1489 1490 1490 1491 1494 1497 1499 1499 1499 1499 1499 1500 1501 1501 1502 1503 1504 1503 1503 1504 1503 1502 1501 1500 1500 1499 1496
1449 1450 1449 1449 1441 1438 1439 1432 1428 1422 1420 1419 1419 1424 1433 1439 1449 1459 1468 1476 1482 1485 1488 1490 1491 1492 1494 1493 1494 1495 1497 1498 1499 1499 1499 1501 1501 1502 1501 1502 1502 1503 1502 1502 1500 1499 1499 1499 1497
1448 1439 1440 1442 1446 1447 1434 1436 1421 1411 1405 1405 1416 1422 1428 1436 1444 1456 1466 1472 1478 1482 1486 1488 1489 1489 1490 1492 1492 1494 1495 1497 1498 1498 1498 1499 1500 1500 1500 1501 1501 1502 1502 1501 1500 1499 1498 1497 1497
1439 1436 1436 1440 1441 1440 1434 1436 1408 1405 1405 1404 1411 1421 1429 1436 1443 1452 1460 1467 1475 1480 1483 1484 1486 1487 1487 1488 1489 1492 1492 1494 1494 1496 1497 1498 1499 1500 1501 1502 1502 1501 1500 1500 1501 1499 1498 1497 1496
1438 1441 1440 1437 1438 1439 1427 1428 1411 1410 1407 1393 1411 1423 1430 1437 1443 1450 1457 1465 1472 1474 1478 1481 1483 1483 1483 1485 1487 1488 1490 1491 1493 1495 1496 1497 1497 1499 1501 1502 1502 1501 1500 1500 1500 1499 1498 1497 1497
1440 1445 1457 1453 1446 1432 1410 1408 1402 1398 1404 1410 1416 1423 1430 1436 1441 1447 1453 1461 1468 1470 1473 1477 1480 1481 1481 1483 1485 1487 1488 1490 1491 1493 1495 1496 1497 1496 1497 1499 1501 1501 1501 1499 1499 1500 1500 1499 1498
1435 1437 1448 1454 1442 1424 1398 1406 1404 1394 1403 1413 1416 1422 1428 1434 1438 1446 1451 1458 1463 1466 1471 1475 1477 1478 1479 1482 1483 1485 1486 1489 1491 1492 1493 1493 1495 1497 1497 1497 1499 1501 1500 1499 1501 1501 1501 1500 1499
1432 1437 1427 1429 1423 1432 1418 1409 1391 1394 1404 1414 1421 1424 1428 1433 1437 1444 1449 1455 1459 1463 1468 1472 1475 1476 1477 1478 1481 1483 1484 1488 1488 1490 1490 1492 1495 1495 1495 1497 1499 1499 1499 1500 1501 1500 1500 1500 1499
1425 1424 1436 1432 1442 1440 1422 1413 1406 1412 1413 1418 1424 1424 1426 1432 1436 1441 1447 1452 1455 1461 1465 1469 1473 1474 1474 1476 1479 1481 1483 1485 1487 1488 1489 1491 1492 1493 1495 1497 1498 1498 1499 1499 1499 1498 1499 1499 1498
1422 1428 1425 1423 1425 1432 1437 1430 1418 1420 1422 1425 1422 1424 1427 1431 1435 1439 1445 1449 1453 1457 1461 1465 1469 1469 1470 1473 1477 1478 1480 1482 1485 1485 1487 1489 1491 1493 1494 1496 1496 1497 1498 1498 1499 1498 1499 1499 1499
1422 1422 1424 1431 1429 1427 1431 1423 1410 1414 1418 1419 1422 1423 1424 1427 1428 1433 1438 1444 1450 1454 1457 1460 1463 1465 1467 1471 1473 1475 1477 1480 1482 1483 1485 1487 1491 1492 1493 1494 1496 1497 1498 1498 1498 1499 1500 1500 1500